Location: Newark
(45.9456°N, 15.4064°E)
Time: 17:48:23
(UTC+00:00)

Altair - Visible Passes

Search period start: 21 January 2020 00:00
Search period end: 31 January 2020 00:00
Orbit: 1502 x 1682 km, 47.2° (Epoch: 20 January)

Date Brightness Start Highest point End Pass type
(mag) Time Alt. Az. Time Alt. Az. Time Alt. Az.
25 Jan 9.9 05:49:19 10° S 05:57:07 27° SE 06:05:00 10° ENE visible
26 Jan 9.8 05:24:38 10° S 05:32:04 24° SE 05:39:35 10° E visible
27 Jan 9.8 05:00:00 10° S 05:07:01 22° SE 05:14:08 10° E visible
28 Jan 9.8 04:35:26 10° SSE 04:41:59 20° SE 04:48:37 10° E visible
29 Jan 9.8 04:10:58 10° SSE 04:16:57 18° SE 04:23:02 10° E visible
30 Jan 9.8 03:46:36 10° SSE 03:51:57 16° ESE 03:57:21 10° E visible
30 Jan 8.6 05:45:27 10° SW 05:54:53 51° SE 06:04:32 10° ENE visible
